Location: Newark
(30.1000°N, 109.4667°E)
Time: 17:46:28
(UTC+00:00)

Vanguard 1 Rocket - Pass Details

Date: 20 February 2020
Orbit: 650 x 4226 km, 34.3° (Epoch: 04 April)

Event Time Altitude Azimuth Distance (km) Brightness Sun altitude
Exits shadow 21:45:53 38° 311° (NW) 1,039 7.3 -20.5°
Maximum altitude 21:47:11 51° 0° (N) 834 7.1 -20.2°
Drops below altitude 10° 21:51:27 10° 78° (ENE) 2,060 10.4 -19.3°
Sets 21:53:52 0° 84° (E) 3,070 11.7 -18.8°
